FW4141 Weather Reports


time (UTC)temp
C
wind
direction
speed
KPH
gust
KPH
rain 1hr
cm
rain 24hr
cm
rain mn
cm
humidity
%
barometer
mb
20260831010110 16 0.0 0.0 0.00 0.00 0.00 85 1007.3
20260831005025 16 0.0 0.0 0.00 0.00 0.00 85 1007.4
20260831004021 16 0.0 0.0 0.00 0.00 0.00 85 1007.5
20260831003019 16 0.0 0.0 0.00 0.00 0.00 86 1007.5
20260831002113 16 0.0 0.0 0.00 0.00 0.00 87 1007.5
20260831001110 16 0.0 0.0 0.00 0.00 0.00 88 1007.5
20260831000106 16 0.0 0.0 0.00 0.00 0.00 88 1007.5
20260830235104 16 0.0 3.2 0.00 0.00 0.00 88 1007.5
20260830234100 15 0.0 0.0 0.00 0.00 0.00 87 1007.5
20260830233055 15 0.0 0.0 0.00 0.00 0.00 86 1007.4
20260830232052 15 0.0 0.0 0.00 0.00 0.00 86 1007.4
20260830231109 16 0.0 0.0 0.00 0.00 0.00 85 1007.5
20260830230106 16 0.0 0.0 0.00 0.00 0.00 84 1007.4
20260830225042 16 0.0 0.0 0.00 0.00 0.00 84 1007.3
20260830224038 16 0.0 0.0 0.00 0.00 0.00 83 1007.4
20260830223035 16 0.0 0.0 0.00 0.00 0.00 83 1007.3
20260830222052 17 0.0 0.0 0.00 0.00 0.00 83 1007.3
20260830221027 17 0.0 0.0 0.00 0.00 0.00 83 1007.4
20260830220025 17 0.0 0.0 0.00 0.00 0.00 83 1007.4
20260830215042 17 0.0 0.0 0.00 0.00 0.00 81 1007.3
20260830214019 17 0.0 0.0 0.00 0.00 0.00 81 1007.3
20260830213113 17 0.0 0.0 0.00 0.00 0.00 81 1007.2
20260830212113 17 0.0 0.0 0.00 0.00 0.00 80 1007.1
20260830211107 18 0.0 0.0 0.00 0.00 0.00 79 1007.2
20260830210104 18 0.0 0.0 0.00 0.00 0.00 78 1007.2
20260830205059 18 0.0 0.0 0.00 0.00 0.00 78 1007.2
20260830204115 18 0.0 0.0 0.00 0.00 0.00 78 1007.1
20260830203052 18 0.0 0.0 0.00 0.00 0.00 78 1007.1
20260830202048 18 0.0 0.0 0.00 0.00 0.00 77 1007.1
20260830201044 18 0.0 0.0 0.00 0.00 0.00 77 1007.1
20260830200122 18 0.0 0.0 0.00 0.00 0.00 76 1007.1
20260830195037 18 0.0 0.0 0.00 0.00 0.00 76 1007.1
20260830194041 18 0.0 0.0 0.00 0.00 0.00 75 1007.0
20260830193030 18 0.0 0.0 0.00 0.00 0.00 72 1007.1
20260830192101 18 0.0 0.0 0.00 0.00 0.00 71 1007.0
20260830191025 19 0.0 1.6 0.00 0.00 0.00 70 1007.2
20260830190020 20 0.0 0.0 0.00 0.00 0.00 70 1007.0
20260830185015 20 0.0 0.0 0.00 0.00 0.00 69 1007.0
20260830184112 20 0.0 0.0 0.00 0.00 0.00 67 1007.0
20260830183115 21 0.0 0.0 0.00 0.00 0.00 64 1006.9
20260830182127 21 0.0 0.0 0.00 0.00 0.00 61 1006.9
20260830181101 22 0.0 1.6 0.00 0.00 0.00 57 1006.7
20260830180057 22 0.0 1.6 0.00 0.00 0.00 53 1006.7
20260830175053 23 315 0.0 3.2 0.00 0.00 0.00 51 1006.5
20260830174050 23 270 0.0 3.2 0.00 0.00 0.00 50 1006.5
20260830173048 24 347 0.0 3.2 0.00 0.00 0.00 49 1006.4
20260830172041 25 0 0.0 4.8 0.00 0.00 0.00 47 1006.3
20260830171039 25 279 1.6 4.8 0.00 0.00 0.00 45 1006.2
20260830170043 25 304 3.2 6.4 0.00 0.00 0.00 45 1006.1
20260830165031 25 314 3.2 9.7 0.00 0.00 0.00 45 1006.0
20260830164048 26 5 4.8 8.0 0.00 0.00 0.00 43 1005.9
20260830163027 26 288 4.8 9.7 0.00 0.00 0.00 42 1005.9
20260830162022 27 339 4.8 8.0 0.00 0.00 0.00 40 1005.8
20260830161058 27 7 3.2 9.7 0.00 0.00 0.00 39 1005.7
20260830160117 27 314 3.2 4.8 0.00 0.00 0.00 40 1005.6
20260830155110 28 274 1.6 6.4 0.00 0.00 0.00 39 1005.7
20260830154107 27 356 4.8 9.7 0.00 0.00 0.00 36 1005.6
20260830153103 27 36 4.8 8.0 0.00 0.00 0.00 35 1005.7
20260830152103 27 261 3.2 9.7 0.00 0.00 0.00 39 1005.7
20260830151059 27 0 1.6 4.8 0.00 0.00 0.00 45 1005.7
20260830150114 26 231 3.2 6.4 0.00 0.00 0.00 49 1005.7
20260830145049 27 253 3.2 6.4 0.00 0.00 0.00 45 1005.9
20260830144108 27 53 0.0 3.2 0.00 0.00 0.00 41 1005.8
20260830143045 28 287 3.2 8.0 0.00 0.00 0.00 40 1005.8
20260830142051 28 288 4.8 12.9 0.00 0.00 0.00 39 1005.7
20260830141037 27 302 1.6 6.4 0.00 0.00 0.00 40 1005.8
20260830140037 27 188 3.2 6.4 0.00 0.00 0.00 40 1005.7
20260830135030 27 120 3.2 8.0 0.00 0.00 0.00 39 1005.6
20260830134022 28 269 4.8 12.9 0.00 0.00 0.00 38 1005.7
20260830133052 28 253 4.8 12.9 0.00 0.00 0.00 37 1005.7
20260830132018 29 126 4.8 8.0 0.00 0.00 0.00 40 1005.7
20260830131113 29 305 3.2 8.0 0.00 0.00 0.00 39 1005.7
20260830130132 29 237 4.8 11.3 0.00 0.00 0.00 39 1005.7
20260830125111 29 2 4.8 9.7 0.00 0.00 0.00 38 1005.7
20260830123120 28 344 6.4 11.3 0.00 0.00 0.00 39 1005.8
20260830122116 29 11 4.8 9.7 0.00 0.00 0.00 39 1005.7
20260830121053 28 305 8.0 14.5 0.00 0.00 0.00 39 1005.9
20260830120049 28 340 4.8 14.5 0.00 0.00 0.00 40 1005.8
20260830115051 28 301 8.0 17.7 0.00 0.00 0.00 40 1005.8
20260830114102 28 269 6.4 12.9 0.00 0.00 0.00 39 1005.7
20260830113128 28 230 6.4 14.5 0.00 0.00 0.00 40 1005.8
20260830112033 27 305 4.8 12.9 0.00 0.00 0.00 43 1005.8
20260830111033 26 316 6.4 14.5 0.00 0.00 0.00 45 1005.9
20260830110050 27 252 6.4 11.3 0.00 0.00 0.00 43 1006.0
20260830105023 27 252 6.4 12.9 0.00 0.00 0.00 46 1005.9
20260830104102 27 340 6.4 11.3 0.00 0.00 0.00 42 1006.0
20260830103147 28 274 6.4 12.9 0.00 0.00 0.00 42 1005.9
20260830102111 27 270 6.4 11.3 0.00 0.00 0.00 48 1006.0
20260830101107 26 228 6.4 12.9 0.00 0.00 0.00 49 1006.0
20260830100126 26 267 4.8 9.7 0.00 0.00 0.00 50 1006.1
20260830095101 26 321 4.8 11.3 0.00 0.00 0.00 49 1006.0
20260830094058 26 293 4.8 8.0 0.00 0.00 0.00 48 1006.1
20260830093056 26 304 6.4 12.9 0.00 0.00 0.00 48 1006.1
20260830092059 25 229 8.0 17.7 0.00 0.00 0.00 50 1006.2
20260830091049 26 295 4.8 11.3 0.00 0.00 0.00 48 1006.1
20260830090045 26 184 6.4 9.7 0.00 0.00 0.00 47 1006.1
20260830085038 26 348 3.2 6.4 0.00 0.00 0.00 51 1006.3
20260830084035 25 45 1.6 8.0 0.00 0.00 0.00 53 1006.3
20260830083040 24 322 3.2 6.4 0.00 0.00 0.00 56 1006.4
20260830082027 23 338 3.2 6.4 0.00 0.00 0.00 57 1006.4
20260830081025 23 265 1.6 4.8 0.00 0.00 0.00 59 1006.3
20260830080020 22 257 3.2 6.4 0.00 0.00 0.00 59 1006.2
20260830075040 22 258 4.8 6.4 0.00 0.00 0.00 59 1006.3
20260830074114 22 347 3.2 9.7 0.00 0.00 0.00 58 1006.2
20260830073112 22 186 3.2 6.4 0.00 0.00 0.00 62 1006.4
20260830072107 21 140 3.2 8.0 0.00 0.00 0.00 61 1006.4
20260830071132 22 145 4.8 9.7 0.00 0.00 0.00 61 1006.3
20260830070248 22 202 4.8 9.7 0.00 0.00 0.00 59 1006.2
20260830065056 21 252 3.2 6.4 0.00 0.00 0.00 63 1006.3
20260830064115 21 188 1.6 4.8 0.00 0.00 0.00 63 1006.3
20260830063119 20 221 1.6 8.0 0.00 0.00 0.00 63 1006.3
20260830062046 20 180 1.6 4.8 0.00 0.00 0.00 66 1006.3
20260830061041 19 175 3.2 6.4 0.00 0.00 0.00 67 1006.3
20260830060100 19 204 1.6 4.8 0.00 0.03 0.00 68 1006.2
20260830055035 19 0.0 0.0 0.00 0.03 0.00 67 1006.3
20260830054102 19 124 0.0 3.2 0.00 0.03 0.00 66 1006.3
20260830053056 18 180 1.6 6.4 0.00 0.03 0.00 67 1006.2
20260830052052 18 194 3.2 6.4 0.00 0.03 0.00 67 1006.3
20260830051048 18 157 0.0 3.2 0.00 0.03 0.00 68 1006.2
20260830050048 18 81 1.6 6.4 0.00 0.03 0.00 67 1006.3
20260830045041 18 203 0.0 3.2 0.00 0.03 0.00 67 1006.3
20260830044058 18 135 0.0 3.2 0.00 0.03 0.00 69 1006.2
20260830043034 18 90 1.6 3.2 0.00 0.03 0.00 69 1006.2
20260830042111 18 135 1.6 4.8 0.00 0.03 0.00 68 1006.2
20260830041027 18 178 3.2 8.0 0.00 0.03 0.00 68 1006.4
20260830040024 18 174 1.6 4.8 0.00 0.03 0.00 68 1006.4
20260830035020 17 172 3.2 6.4 0.00 0.03 0.00 69 1006.4
20260830034017 17 189 0.0 4.8 0.00 0.03 0.00 69 1006.4
20260830033113 17 206 1.6 6.4 0.00 0.03 0.00 69 1006.6
20260830032149 17 162 0.0 3.2 0.00 0.03 0.00 69 1006.4
20260830031108 17 158 1.6 6.4 0.00 0.03 0.00 69 1006.6
20260830025101 17 248 1.6 6.4 0.00 0.05 0.00 69 1006.7
20260830024055 17 179 3.2 6.4 0.00 0.10 0.00 69 1006.8
20260830023052 17 310 1.6 6.4 0.00 0.15 0.00 70 1006.8
20260830022048 17 125 3.2 12.9 0.00 0.18 0.00 72 1006.9
20260830021046 17 188 1.6 4.8 0.00 0.20 0.00 72 1006.9
20260830020043 17 195 1.6 4.8 0.00 0.23 0.00 73 1007.0
20260830015038 17 180 0.0 4.8 0.00 0.28 0.00 73 1007.1
20260830014034 17 145 1.6 3.2 0.00 0.33 0.00 73 1007.1
20260830013030 16 215 1.6 6.4 0.00 0.36 0.00 73 1007.0
20260830012025 16 146 0.0 3.2 0.00 0.43 0.00 73 1007.2
20260830011021 16 180 0.0 3.2 0.00 0.48 0.00 73 1007.2